When you browse on this site, cookies collect data to enhance your experience and personalize the content and advertising you see.
Visit our Privacy Policy to learn more. By continuing to use the site, you agree to this use of cookies and data.

Meteo pe oră la Dzialy

Astăzi, 24 Septembrie, Joi

Timp Temperatura Precipitaţii Vânt Presiune Umiditate
00:00 +17°C° 0 mm 3 m/s 744 mmHg 72%
01:00 +17°C° 0 mm 3 m/s 744 mmHg 73%
02:00 +17°C° 0 mm 3 m/s 744 mmHg 74%
03:00 +16°C° 0 mm 3 m/s 744 mmHg 75%
04:00 +16°C° 0 mm 3 m/s 744 mmHg 75%
05:00 +16°C° 0 mm 2 m/s 743 mmHg 76%
06:00 +16°C° 0 mm 3 m/s 743 mmHg 73%
07:00 +17°C° 0 mm 3 m/s 743 mmHg 71%
08:00 +18°C° 0 mm 3 m/s 743 mmHg 68%
09:00 +20°C° 0 mm 4 m/s 743 mmHg 63%
10:00 +22°C° 0 mm 4 m/s 744 mmHg 57%
11:00 +23°C° 0 mm 4 m/s 744 mmHg 52%
12:00 +25°C° 0 mm 4 m/s 744 mmHg 50%
13:00 +26°C° 0 mm 4 m/s 744 mmHg 48%
14:00 +27°C° 0 mm 4 m/s 743 mmHg 46%
15:00 +26°C° 0.1 mm 3 m/s 743 mmHg 49%
16:00 +26°C° 0.1 mm 2 m/s 743 mmHg 53%
17:00 +25°C° 0.1 mm 2 m/s 743 mmHg 56%
18:00 +23°C° 0.1 mm 2 m/s 743 mmHg 62%
19:00 +21°C° 0.1 mm 2 m/s 743 mmHg 68%
20:00 +19°C° 0.1 mm 2 m/s 743 mmHg 74%
21:00 +18°C° 0.1 mm 2 m/s 743 mmHg 77%
22:00 +18°C° 0.1 mm 2 m/s 743 mmHg 79%
23:00 +17°C° 0.1 mm 2 m/s 743 mmHg 82%

Mâine, 25 Septembrie, Vineri

Timp Temperatura Precipitaţii Vânt Presiune Umiditate
00:00 +17°C° 0 mm 2 m/s 743 mmHg 84%
01:00 +17°C° 0 mm 2 m/s 743 mmHg 85%
02:00 +16°C° 0 mm 2 m/s 742 mmHg 87%
03:00 +16°C° 0 mm 2 m/s 742 mmHg 88%
04:00 +16°C° 0 mm 2 m/s 742 mmHg 88%
05:00 +15°C° 0 mm 2 m/s 742 mmHg 89%
06:00 +16°C° 0 mm 3 m/s 741 mmHg 85%
07:00 +17°C° 0 mm 4 m/s 741 mmHg 82%
08:00 +17°C° 0 mm 5 m/s 741 mmHg 78%
09:00 +19°C° 0 mm 5 m/s 741 mmHg 71%
10:00 +21°C° 0 mm 6 m/s 740 mmHg 64%
11:00 +23°C° 0 mm 6 m/s 740 mmHg 57%
12:00 +24°C° 0 mm 6 m/s 740 mmHg 54%
13:00 +24°C° 0 mm 6 m/s 739 mmHg 52%
14:00 +26°C° 0 mm 6 m/s 739 mmHg 49%
15:00 +26°C° 0 mm 6 m/s 739 mmHg 52%
16:00 +25°C° 0 mm 5 m/s 738 mmHg 55%
17:00 +25°C° 0 mm 5 m/s 738 mmHg 57%
18:00 +22°C° 0.2 mm 5 m/s 738 mmHg 62%
19:00 +21°C° 0.2 mm 5 m/s 738 mmHg 66%
20:00 +20°C° 0.2 mm 4 m/s 737 mmHg 71%
21:00 +20°C° 0.2 mm 4 m/s 737 mmHg 71%
22:00 +19°C° 0.2 mm 5 m/s 737 mmHg 72%
23:00 +19°C° 0.2 mm 5 m/s 737 mmHg 72%

Poimâine, 26 Septembrie, Sâmbătă

Timp Temperatura Precipitaţii Vânt Presiune Umiditate
00:00 +18°C° 0 mm 4 m/s 737 mmHg 75%
01:00 +18°C° 0 mm 4 m/s 737 mmHg 78%
02:00 +17°C° 0 mm 3 m/s 737 mmHg 80%
03:00 +18°C° 0 mm 3 m/s 737 mmHg 80%
04:00 +18°C° 0 mm 3 m/s 736 mmHg 79%
05:00 +18°C° 0 mm 4 m/s 736 mmHg 79%
06:00 +18°C° 0 mm 4 m/s 736 mmHg 78%
07:00 +18°C° 0 mm 4 m/s 736 mmHg 78%
08:00 +18°C° 0 mm 4 m/s 736 mmHg 77%
09:00 +19°C° 0 mm 5 m/s 736 mmHg 75%
10:00 +20°C° 0 mm 6 m/s 736 mmHg 72%
11:00 +21°C° 0 mm 6 m/s 736 mmHg 70%
12:00 +22°C° 0 mm 7 m/s 736 mmHg 67%
13:00 +23°C° 0 mm 7 m/s 736 mmHg 64%
14:00 +23°C° 0 mm 7 m/s 736 mmHg 61%
15:00 +23°C° 0 mm 7 m/s 736 mmHg 61%
16:00 +23°C° 0 mm 6 m/s 736 mmHg 61%
17:00 +23°C° 0 mm 6 m/s 736 mmHg 61%
18:00 +22°C° 0.2 mm 6 m/s 736 mmHg 61%
19:00 +22°C° 0.2 mm 6 m/s 736 mmHg 62%
20:00 +21°C° 0.2 mm 6 m/s 736 mmHg 62%
21:00 +21°C° 0 mm 7 m/s 736 mmHg 59%
22:00 +22°C° 0 mm 7 m/s 736 mmHg 56%
23:00 +22°C° 0 mm 7 m/s 736 mmHg 53%

27 Septembrie, Duminică

Timp Temperatura Precipitaţii Vânt Presiune Umiditate
00:00 +21°C° 0 mm 7 m/s 735 mmHg 54%
01:00 +21°C° 0 mm 7 m/s 735 mmHg 55%
02:00 +20°C° 0 mm 7 m/s 734 mmHg 55%
03:00 +20°C° 0 mm 7 m/s 734 mmHg 56%
04:00 +20°C° 0 mm 7 m/s 734 mmHg 57%
05:00 +20°C° 0 mm 8 m/s 734 mmHg 57%
06:00 +20°C° 0 mm 8 m/s 734 mmHg 61%
07:00 +20°C° 0 mm 8 m/s 734 mmHg 64%
08:00 +19°C° 0 mm 9 m/s 734 mmHg 68%
09:00 +19°C° 0 mm 9 m/s 734 mmHg 65%
10:00 +19°C° 0 mm 9 m/s 735 mmHg 62%
11:00 +19°C° 0 mm 9 m/s 735 mmHg 60%
12:00 +19°C° 0 mm 9 m/s 735 mmHg 62%
13:00 +19°C° 0 mm 9 m/s 735 mmHg 64%
14:00 +18°C° 0 mm 9 m/s 735 mmHg 66%
15:00 +18°C° 0.1 mm 9 m/s 735 mmHg 69%
16:00 +18°C° 0.1 mm 9 m/s 735 mmHg 72%
17:00 +17°C° 0.1 mm 9 m/s 735 mmHg 75%
18:00 +16°C° 0.1 mm 8 m/s 736 mmHg 78%
19:00 +16°C° 0.1 mm 7 m/s 736 mmHg 80%
20:00 +15°C° 0.1 mm 6 m/s 737 mmHg 82%
21:00 +14°C° 0 mm 5 m/s 738 mmHg 82%
22:00 +13°C° 0 mm 5 m/s 738 mmHg 81%
23:00 +12°C° 0 mm 4 m/s 739 mmHg 80%

28 Septembrie, Luni

Timp Temperatura Precipitaţii Vânt Presiune Umiditate
00:00 +12°C° 0 mm 4 m/s 739 mmHg 81%
01:00 +11°C° 0 mm 4 m/s 740 mmHg 81%
02:00 +11°C° 0 mm 3 m/s 740 mmHg 82%
03:00 +11°C° 0 mm 3 m/s 741 mmHg 82%
04:00 +10°C° 0 mm 4 m/s 741 mmHg 81%
05:00 +10°C° 0 mm 4 m/s 741 mmHg 81%
06:00 +10°C° 0 mm 4 m/s 742 mmHg 80%
07:00 +10°C° 0 mm 4 m/s 742 mmHg 79%
08:00 +10°C° 0 mm 4 m/s 743 mmHg 78%
09:00 +11°C° 0 mm 4 m/s 743 mmHg 71%
10:00 +13°C° 0 mm 3 m/s 743 mmHg 64%
11:00 +14°C° 0 mm 3 m/s 744 mmHg 57%
12:00 +15°C° 0 mm 4 m/s 744 mmHg 56%
13:00 +15°C° 0 mm 4 m/s 744 mmHg 55%
14:00 +15°C° 0 mm 5 m/s 744 mmHg 53%
15:00 +15°C° 0 mm 4 m/s 744 mmHg 53%
16:00 +15°C° 0 mm 4 m/s 744 mmHg 53%
17:00 +16°C° 0 mm 3 m/s 744 mmHg 53%
18:00 +14°C° 0 mm 3 m/s 744 mmHg 57%
19:00 +13°C° 0 mm 3 m/s 744 mmHg 60%
20:00 +13°C° 0 mm 2 m/s 744 mmHg 64%
21:00 +11°C° 0 mm 3 m/s 744 mmHg 66%
22:00 +11°C° 0 mm 3 m/s 744 mmHg 67%
23:00 +11°C° 0 mm 3 m/s 744 mmHg 69%

29 Septembrie, Marţi

Timp Temperatura Precipitaţii Vânt Presiune Umiditate
00:00 +11°C° 0 mm 3 m/s 744 mmHg 71%
01:00 +12°C° 0 mm 4 m/s 743 mmHg 72%
02:00 +12°C° 0 mm 4 m/s 743 mmHg 74%
03:00 +12°C° 0.4 mm 4 m/s 742 mmHg 79%
04:00 +12°C° 0.4 mm 4 m/s 742 mmHg 85%
05:00 +10°C° 0.4 mm 5 m/s 741 mmHg 90%
06:00 +12°C° 2.1 mm 4 m/s 741 mmHg 91%
07:00 +12°C° 2.1 mm 4 m/s 741 mmHg 93%
08:00 +12°C° 2.1 mm 4 m/s 740 mmHg 94%
09:00 +12°C° 2.3 mm 4 m/s 740 mmHg 94%
10:00 +13°C° 2.3 mm 4 m/s 740 mmHg 94%
11:00 +14°C° 2.3 mm 4 m/s 740 mmHg 94%
12:00 +14°C° 1.2 mm 4 m/s 740 mmHg 90%
13:00 +15°C° 1.2 mm 4 m/s 740 mmHg 86%
14:00 +15°C° 1.2 mm 4 m/s 740 mmHg 82%
15:00 +16°C° 0.4 mm 3 m/s 740 mmHg 83%
16:00 +15°C° 0.4 mm 2 m/s 740 mmHg 85%
17:00 +15°C° 0.4 mm 2 m/s 740 mmHg 86%
18:00 +15°C° 0.2 mm 2 m/s 741 mmHg 86%
19:00 +14°C° 0.2 mm 3 m/s 741 mmHg 85%
20:00 +13°C° 0.2 mm 3 m/s 741 mmHg 85%
21:00 +13°C° 0 mm 3 m/s 741 mmHg 86%
22:00 +13°C° 0 mm 3 m/s 741 mmHg 88%
23:00 +13°C° 0 mm 3 m/s 741 mmHg 89%
Arată mai mult